Date String (YYYY-MM-DD hh:mm:ss) UTC,Instrument flags,Ambient pressure (hPa),Sample flow (lpm),Bypass flow (lpm),Sample temperature (°C),Ambient temperature (°C),ASC tube jacket temperature (°C),LED temperature (°C),Box temperature (°C),Sample RH (%),Span deviation,Mass concentration (μg/m³),Mass concentration (μg/m³),Mass concentration (μg/m³)
DateTimeUTC,F1_M11,P_M11,Q1_M11,Q2_M11,T1_M11,T2_M11,T3_M11,T4_M11,T5_M11,U1_M11,ZSPAN_M11,X0_M11,X2_M11,X1_M11
2022-07-29 09:00:00,,0830.1,5.00,0.00,30.8,28.5,00.0,39.2,32.0,35.0,0000.7,0010.80,0007.88,0007.51
2022-07-29 09:01:00,,0830.1,5.00,0.00,30.8,28.6,00.0,39.2,32.1,35.0,0000.7,0011.00,0007.88,0007.53
2022-07-29 09:02:00,,0830.1,5.00,0.00,31.0,28.7,00.0,39.3,32.1,34.7,0000.5,0011.06,0007.87,0007.52
2022-07-29 09:03:00,,0830.1,5.01,0.00,31.1,28.7,00.0,39.3,32.2,34.5,0000.5,0011.09,0007.82,0007.49
2022-07-29 09:04:00,,0830.1,5.00,0.00,31.1,28.8,00.0,39.3,32.2,34.4,0000.2,0011.05,0007.81,0007.47
2022-07-29 09:05:00,,0830.1,5.00,0.00,31.1,28.9,00.0,39.3,32.2,34.3,-000.0,0011.02,0007.80,0007.45
2022-07-29 09:06:00,,0830.1,5.00,0.00,31.1,28.9,00.0,39.4,32.2,34.4,0000.1,0010.94,0007.76,0007.44
2022-07-29 09:07:00,,0830.1,4.99,0.00,31.1,29.0,00.0,39.4,32.2,34.4,-000.1,0011.36,0007.73,0007.43
2022-07-29 09:08:00,,0830.1,5.00,0.00,31.1,29.0,00.0,39.4,32.3,34.3,-000.3,0011.90,0007.74,0007.42
2022-07-29 09:09:00,,0830.1,5.00,0.00,31.1,29.1,00.0,39.5,32.3,34.3,-000.3,0011.95,0007.74,0007.42
2022-07-29 09:10:00,,0830.1,5.01,0.00,31.1,29.1,00.0,39.5,32.3,34.3,-000.1,0011.90,0007.72,0007.41
2022-07-29 09:11:00,,0830.1,5.00,0.00,31.0,29.1,00.0,39.5,32.3,34.5,-000.3,0011.65,0007.72,0007.40
2022-07-29 09:12:00,,0830.1,5.00,0.00,31.0,29.2,00.0,39.5,32.3,34.4,-000.6,0011.45,0007.70,0007.38
2022-07-29 09:13:00,,0830.1,4.99,0.00,31.0,29.2,00.0,39.5,32.3,34.5,-000.4,0011.34,0007.72,0007.41
2022-07-29 09:14:00,,0830.1,5.00,0.00,31.0,29.2,00.0,39.6,32.3,34.5,-000.6,0011.33,0007.75,0007.44
2022-07-29 09:15:00,,0830.1,5.00,0.00,31.0,29.3,00.0,39.6,32.4,34.6,-000.6,0011.44,0007.80,0007.50
2022-07-29 09:16:00,,0830.1,5.00,0.00,31.0,29.3,00.0,39.6,32.4,34.7,-000.7,0011.51,0007.84,0007.55
2022-07-29 09:17:00,,0830.1,5.00,0.00,31.0,29.3,00.0,39.6,32.4,34.7,-001.2,0011.63,0007.90,0007.59
2022-07-29 09:18:00,,0830.1,4.99,0.00,31.0,29.0,00.0,39.6,32.3,34.8,-001.3,0011.25,0007.94,0007.62
2022-07-29 09:19:00,,0830.0,5.01,0.00,30.9,28.2,00.0,39.5,32.1,35.1,-001.4,0010.74,0007.96,0007.65
2022-07-29 09:20:00,,0830.0,4.99,0.00,31.0,27.8,00.0,39.5,32.1,34.9,-001.7,0010.53,0007.98,0007.67
2022-07-29 09:21:00,,0830.0,5.01,0.00,31.0,27.7,00.0,39.4,32.0,34.7,-001.8,0010.44,0007.96,0007.68
2022-07-29 09:22:00,,0830.0,5.01,0.00,31.0,27.8,00.0,39.4,32.0,34.7,-001.7,0010.44,0007.96,0007.69
2022-07-29 09:23:00,,0830.0,5.00,0.00,31.0,27.9,00.0,39.4,32.0,34.7,-001.4,0010.51,0008.02,0007.72
2022-07-29 09:24:00,,0830.1,5.00,0.00,30.9,28.1,00.0,39.4,32.0,34.6,-001.7,0010.52,0008.03,0007.71
2022-07-29 09:25:00,,0830.1,4.99,0.00,30.9,28.2,00.0,39.4,32.0,34.5,-001.4,0010.41,0008.02,0007.68
2022-07-29 09:26:00,,0830.1,5.00,0.00,30.9,28.3,00.0,39.4,32.0,34.1,-001.0,0010.70,0007.99,0007.65
2022-07-29 09:27:00,,0830.1,5.00,0.00,30.9,28.4,00.0,39.4,32.1,34.0,-001.0,0011.14,0007.97,0007.62
2022-07-29 09:28:00,,0830.1,5.01,0.00,30.9,28.5,00.0,39.4,32.1,34.0,-000.7,0011.29,0007.96,0007.59
2022-07-29 09:29:00,,0830.0,5.00,0.00,30.8,28.6,00.0,39.4,32.1,33.9,-000.5,0012.08,0007.94,0007.56
2022-07-29 09:30:00,,0830.0,4.99,0.00,30.8,28.7,00.0,39.4,32.1,33.9,0000.0,0012.39,0007.94,0007.53
2022-07-29 09:31:00,,0830.1,5.01,0.00,30.8,28.8,00.0,39.4,32.1,33.8,0000.3,0012.75,0007.95,0007.51
2022-07-29 09:32:00,,0830.0,5.01,0.00,30.8,28.8,00.0,39.4,32.1,33.8,0000.4,0012.87,0007.99,0007.52
2022-07-29 09:33:00,,0830.1,5.00,0.00,30.8,28.9,00.0,39.4,32.1,33.8,0000.1,0012.99,0008.00,0007.50
2022-07-29 09:34:00,,0830.0,5.00,0.00,30.8,28.9,00.0,39.4,32.1,33.8,-000.1,0013.49,0007.99,0007.47
2022-07-29 09:35:00,,0830.0,5.00,0.00,30.8,29.0,00.0,39.4,32.2,33.8,-000.2,0013.67,0008.00,0007.47
2022-07-29 09:36:00,,0830.0,4.99,0.00,30.7,29.0,00.0,39.4,32.2,33.8,-000.2,0013.65,0007.99,0007.47
2022-07-29 09:37:00,,0830.0,5.01,0.00,30.7,29.0,00.0,39.4,32.2,33.9,-000.4,0013.43,0008.00,0007.47
2022-07-29 09:38:00,,0830.0,5.00,0.00,30.7,29.1,00.0,39.4,32.2,33.9,-000.1,0013.02,0008.02,0007.48
2022-07-29 09:39:00,,0830.0,5.00,0.00,30.7,29.1,00.0,39.4,32.2,34.1,0000.3,0012.88,0008.03,0007.50
2022-07-29 09:40:00,,0830.0,5.00,0.00,30.7,29.1,00.0,39.4,32.3,34.6,0000.1,0012.08,0008.06,0007.53
2022-07-29 09:41:00,,0830.0,5.00,0.00,30.7,29.2,00.0,39.4,32.3,34.6,-000.4,0011.76,0008.06,0007.55
2022-07-29 09:42:00,,0830.0,5.00,0.00,30.7,29.2,00.0,39.4,32.3,34.4,-000.9,0011.80,0008.09,0007.57
2022-07-29 09:43:00,,0830.0,5.01,0.00,30.7,29.2,00.0,39.4,32.3,34.4,-000.6,0011.98,0008.09,0007.58
2022-07-29 09:44:00,,0830.0,5.00,0.00,30.7,29.2,00.0,39.4,32.3,34.5,-000.2,0011.97,0008.12,0007.62
2022-07-29 09:45:00,,0830.1,5.00,0.00,30.7,29.3,00.0,39.4,32.3,34.3,0000.0,0011.95,0008.16,0007.64
2022-07-29 09:46:00,,0830.1,5.00,0.00,30.7,29.3,00.0,39.4,32.3,34.1,-000.1,0012.42,0008.17,0007.65
2022-07-29 09:47:00,,0830.1,5.00,0.00,30.7,29.1,00.0,39.4,32.3,34.1,-000.3,0012.48,0008.20,0007.67
2022-07-29 09:48:00,,0830.1,5.01,0.00,30.7,28.4,00.0,39.4,32.1,34.1,-000.5,0012.54,0008.25,0007.69
2022-07-29 09:49:00,,0830.1,5.01,0.00,30.6,27.9,00.0,39.3,32.0,34.5,-000.7,0013.49,0008.29,0007.72
2022-07-29 09:50:00,,0830.0,4.99,0.00,30.5,27.8,00.0,39.3,31.9,34.9,-000.8,0014.12,0008.32,0007.75
2022-07-29 09:51:00,,0830.1,5.01,0.00,30.4,27.8,00.0,39.3,31.9,35.2,-000.6,0014.30,0008.37,0007.78
2022-07-29 09:52:00,,0830.1,5.00,0.00,30.6,27.9,00.0,39.2,32.0,35.1,-000.3,0014.44,0008.38,0007.79
2022-07-29 09:53:00,,0830.1,5.01,0.00,30.8,28.0,00.0,39.2,32.1,34.7,-000.0,0014.12,0008.36,0007.78
2022-07-29 09:54:00,,0830.1,5.00,0.00,31.0,28.1,00.0,39.2,32.1,34.3,-000.3,0013.96,0008.36,0007.77
2022-07-29 09:55:00,,0830.1,5.00,0.00,31.0,28.3,00.0,39.2,32.1,34.0,-000.7,0013.90,0008.35,0007.76
2022-07-29 09:56:00,,0830.1,5.01,0.00,31.1,28.4,00.0,39.2,32.1,33.9,-000.7,0013.53,0008.35,0007.75
2022-07-29 09:57:00,,0830.0,5.00,0.00,31.1,28.5,00.0,39.3,32.1,34.1,-000.3,0013.34,0008.40,0007.77
2022-07-29 09:58:00,,0830.0,4.99,0.00,31.1,28.6,00.0,39.3,32.1,34.1,-000.1,0013.53,0008.44,0007.77
2022-07-29 09:59:00,,0830.0,5.00,0.00,31.1,28.6,00.0,39.3,32.1,34.2,0000.0,0013.50,0008.43,0007.77
